Back to catalog

ATLAS CENTAUR R/B

AliveLEO
NORAD 6155·ROCKET BODY·🇺🇸 United States

Launched Aug 21, 1972 from Cape Canaveral Space Force Station

Loading…

Next Passes (next 24 hours)

TLE

FreshSource: Space-Track

Epoch: Sep 14, 2026, 09:06 UTC

1 06155U 72065B   26257.37980906  .00000645  00000-0  90312-4 0  9995
2 06155  35.0014 279.5953 0033237 159.8454 200.3566 14.78043682869194

Track ATLAS CENTAUR R/B in real time with AllMySat

Download on the App Store